STARLINK-5748 (55604 NORAD) Tracking and Keplerian Element Data

This shows tracking and keplerian element data for the satellite.

Feedback or suggestion? Click here.




ElementValue
Catalog55604
NameSTARLINK-5748
Epoch Orbit660
Epoch Day85.09640642
Epoch Year2023
RAAN103.5485
Inclination43.0013
Eccentricity0.0001464
Argument of Perigee240.9303
Mean Anonmoly119.1419
Mean Motion15.71403469
Decay Rate0.00013584
L11 55604U 23020AM 23085.09640642 .00013584 00000+0 10665-3 0 9997
L22 55604 43.0013 103.5485 0001464 240.9303 119.1419 15.71403469 6603



Live tracking and technical data element details for STARLINK-5748 (NORAD 55604). STARLINK-5748 can be tracked NOW for your location showing map with azimuth and elevation plus other details from your city location.







IsCatalogInMostPopularTable: catalog: 55604, numindb: -1

Insert: records affected: 1


GetName: 55604 STARLINK-5748

Hit Count: inserted at: Tue, 28 Mar 2023 02:53:56 GMT